Overview Statistics Trail Chart Weather Telemetry Raw packets
 

This is the latest recevied weather packets stored in our database for station/object OK2JCZ-6. If no packets are shown the sender has not sent any weather packets the latest 10 day(s).

<< 68 69 70 71 72 73 74 >>
Time Temp. Humidity Pressure Rain* Wind** Luminosity Snow
1787954635 18.89° C 65% 1012.9 hPa 0 mm - - -
1787954335 18.89° C 58% 1012.9 hPa 0 mm - - -
1787954035 18.89° C 58% 1012.9 hPa 0 mm - - -
1787953735 18.89° C 59% 1012.9 hPa 0 mm - - -
1787953435 18.89° C 59% 1013.1 hPa 0 mm - - -
1787953135 18.89° C 58% 1013 hPa 0 mm - - -
1787952835 18.89° C 57% 1013 hPa 0 mm - - -
1787952535 18.89° C 58% 1012.8 hPa 0 mm - - -
1787952235 18.89° C 56% 1012.5 hPa 0 mm - - -
1787951935 18.89° C 56% 1012.4 hPa 0 mm - - -
1787951635 18.89° C 57% 1012.2 hPa 0 mm - - -
1787951335 19.44° C 57% 1012 hPa 0 mm - - -
1787951035 19.44° C 57% 1012.2 hPa 0 mm - - -
1787950735 19.44° C 56% 1012.3 hPa 0 mm - - -
1787950435 19.44° C 57% 1012.2 hPa 0 mm - - -
1787950135 19.44° C 58% 1012.2 hPa 0 mm - - -
1787949835 19.44° C 60% 1012.2 hPa 0 mm - - -
1787949535 20° C 61% 1012.3 hPa 0 mm - - -
1787949235 20° C 54% 1012.6 hPa 0 mm - - -
1787948935 19.44° C 55% 1012.2 hPa 0 mm - - -
1787948635 19.44° C 61% 1011.9 hPa 0 mm - - -
1787948335 20° C 64% 1012.7 hPa 0 mm - - -
1787948035 20° C 61% 1013.5 hPa 0 mm - - -
1787947735 20.56° C 55% 1014.1 hPa 0 mm - - -
1787947435 20.56° C 48% 1014.5 hPa 0 mm - - -

* Rain latest hour (hover to see other rain measurements)
** Current wind speed in m/s (hover to see current wind gust speed)